Погода в Сабурово

Россия / Московская область     55°52′55″N   37°15′50″E
темп.,
°C
ветер,
м/с
пор.,
м/с
влажн.,
%
обл.,
%
осадки,
мм/ч
давл.,
гПа
погр.,
м
22 января, сб
сб2200:00−6юв3697100 0.7 999232
03:00−10вюв379688 0.8 1000165
06:00−7вюв4995100 0.7 1001400
09:00−7вюв41095100 1.1 1003403
12:00−6вюв4894100 0.3 1005399
15:00−5вюв4795100 0.7 1008409
18:00−6в4895100 0.5 1010325
21:00−7в3796100 0.7 1013212
23 января, вс
вс2300:00−10в379889 0.1 1016121
03:00−13в239989 0.1 101944
06:00−14всв239991 0.1 102250
09:00−17св2210095 0.1 102625
12:00−9в119487 0.1 1028113
15:00−8св129475 0.1 1030125
18:00−15ссв2210083 0.0 10339
21:00−17св1110098 0.0 10359
24 января, пн
пн2400:00−18ссв11100100 0.0 10369
03:00−18ссз21100100 0.0 103810
06:00−19св1110083 0.0 10389
09:00−20в11100100 0.0 10399
12:00−10в019478 0.0 103891
15:00−9юв11945 0.0 103778
18:00−16в1110075 0.0 10379
21:00−18юв11100100 0.0 10379
25 января, вт
вт2500:00−18ююв11100100 0.0 10359
03:00−18ююз11100100 0.0 103310
06:00−18ю23100100 0.0 103032
09:00−19ююз23100100 0.1 102934
12:00−11ю369451 0.0 1026154
15:00−8ююз369295 0.0 1023256
18:00−13ю3897100 0.0 1022114
21:00−15ююз2798100 0.0 102199
26 января, ср
ср2600:00−14юз2698100 0.1 1020105
03:00−10зюз2396100 0.9 1019105
06:00−8зсз1496100 1.1 1019172
09:00−8сз239797 1.5 102084
12:00−5с3692100 0.1 1020408
15:00−5ссз348798 0.2 1021573
18:00−8ссз249596 0.1 1022200
21:00−13ссз249989 0.1 102249